Location: *
(32.8140°S, 174.6161°E)
Time: 13:46:18
(UTC+00:00)

Cosmos 1869 - Pass Details

Date: 10 December 2019
Orbit: 528 x 555 km, 82.5° (Epoch: 26 January)

Event Time Altitude Azimuth Distance (km) Brightness Sun altitude
Exits shadow 14:41:49 78° 157° (SSE) 581 3.4 -24.1°
Drops below altitude 10° 14:45:40 10° 173° (S) 1,864 6.8 -23.6°
Sets 14:47:51 0° 173° (S) 2,764 7.8 -23.3°
